North Tumbulgum, Australia

3:58 AM AEST on April 27, 2017 (GMT +1000)
North Tumbulgum

Weather History for 94592 - November, 2013

Change the Weather History Date:

Friday, November 22, 2013

  Actual Average Record
Temperature  
Mean Temperature 71 °F -  
Max Temperature 78 °F - - ()
Min Temperature 64 °F - - ()
Cooling Degree Days 6    
Growing Degree Days 21 (Base 50)    
Moisture  
Dew Point 64 °F    
Average Humidity 75    
Maximum Humidity 94    
Minimum Humidity 52    
Precipitation  
Precipitation 0.00 in - - ()
Sea Level Pressure  
Sea Level Pressure 29.87 in    
Wind  
Wind Speed 6 mph ()    
Max Wind Speed 14 mph    
Max Gust Speed -    
Visibility 6.2 miles    
Events      
T = Trace of Precipitation, MM = Missing Value Source: Averaged Metar Reports

Daily Weather History Graph

Daily Weather History Graph

Search for Another Location

Airport or City:

Trip Planner

Search our weather history database for the weather conditions in past years. The results will help you decide how hot, cold, wet, or windy it might be!

Date:

Astronomy

Nov. 22, 2013 Rise Set
Actual Time 5:42 AM AEDT 7:21 PM AEDT
Civil Twilight 5:16 AM AEDT 7:47 PM AEDT
Nautical Twilight 4:45 AM AEDT 8:18 PM AEDT
Astronomical Twilight 4:13 AM AEDT 8:51 PM AEDT
Moon 10:56 PM AEDT (11/22) 9:14 AM AEDT (11/22)
Length of Visible Light 14h 30m
Length of Day
13h 38m
Waning Gibbous, 83% of the Moon is Illuminated
Nov 22
Waning Gibbous
Nov 26
Last Quarter
Dec 3
New
Dec 10
First Quarter
Dec 17
Full

Hourly Weather History & Observations

Time (AEDT) Temp. Dew Point Humidity Pressure Visibility Wind Dir Wind Speed Gust Speed Precip Events Conditions
12:00 AM 66.2 °F 64.4 °F 94% 29.89 in 6.2 mi SW 3.5 mph - N/A   Unknown
12:30 AM 66.2 °F 64.4 °F 94% 29.89 in 6.2 mi South 2.3 mph - N/A   Unknown
1:00 AM 66 °F 64 °F 90% 29.91 in - WSW 6.9 mph - -  
1:00 AM 66.2 °F 64.4 °F 94% 29.89 in 6.2 mi WSW 6.9 mph - N/A   Scattered Clouds
1:30 AM 66.2 °F 62.6 °F 88% 29.89 in 6.2 mi SSW 3.5 mph - N/A   Mostly Cloudy
2:00 AM 66.2 °F 64.4 °F 94% 29.89 in 6.2 mi SW 5.8 mph - N/A   Scattered Clouds
2:30 AM 64.4 °F 62.6 °F 94% 29.89 in 6.2 mi SW 2.3 mph - N/A   Unknown
3:00 AM 64.4 °F 62.6 °F 94% 29.86 in 6.2 mi WSW 4.6 mph - N/A   Unknown
3:30 AM 64.4 °F 60.8 °F 88% 29.86 in 6.2 mi WSW 3.5 mph - N/A   Scattered Clouds
4:00 AM 65 °F 64 °F 94% 29.88 in - SW 6.9 mph - -  
4:00 AM 66.2 °F 64.4 °F 94% 29.86 in 6.2 mi SW 6.9 mph - N/A   Overcast
4:30 AM 64.4 °F 62.6 °F 94% 29.86 in 6.2 mi South 4.6 mph - N/A   Mostly Cloudy
5:00 AM 64.4 °F 62.6 °F 94% 29.89 in 6.2 mi South 3.5 mph - N/A   Unknown
5:30 AM 64.4 °F 62.6 °F 94% 29.89 in 6.2 mi WSW 1.2 mph - N/A   Unknown
6:00 AM 64.4 °F 62.6 °F 94% 29.89 in 6.2 mi SSW 3.5 mph - N/A   Unknown
6:30 AM 66.2 °F 64.4 °F 94% 29.89 in 6.2 mi SW 2.3 mph - N/A   Unknown
7:00 AM 67 °F 65 °F 89% 29.90 in - Calm Calm - -  
7:00 AM 68.0 °F 64.4 °F 88% 29.89 in 6.2 mi Calm Calm - N/A   Scattered Clouds
7:30 AM 71.6 °F 64.4 °F 78% 29.89 in 6.2 mi Calm Calm - N/A   Scattered Clouds
8:00 AM 73.4 °F 62.6 °F 69% 29.92 in 6.2 mi SW 3.5 mph - N/A   Unknown
8:30 AM 73.4 °F 64.4 °F 73% 29.92 in 6.2 mi West 3.5 mph - N/A   Mostly Cloudy
9:00 AM 75.2 °F 62.6 °F 65% 29.92 in 6.2 mi WSW 3.5 mph - N/A   Mostly Cloudy
9:30 AM 77.0 °F 64.4 °F 65% 29.89 in 6.2 mi NNE 8.1 mph - N/A   Unknown
10:00 AM 76 °F 62 °F 52% 29.91 in - NNE 5.8 mph - -  
10:00 AM 77.0 °F 60.8 °F 57% 29.89 in 6.2 mi NNE 5.8 mph - N/A   Unknown
10:30 AM 78.8 °F 66.2 °F 65% 29.89 in 6.2 mi ENE 10.4 mph - N/A   Unknown
11:00 AM 77.0 °F 66.2 °F 69% 29.89 in 6.2 mi ENE 11.5 mph - N/A   Unknown
11:30 AM 77.0 °F 64.4 °F 65% 29.89 in 6.2 mi ENE 11.5 mph - N/A   Unknown
12:00 PM 77.0 °F 66.2 °F 69% 29.89 in 6.2 mi ENE 11.5 mph - N/A   Unknown
12:30 PM 77.0 °F 66.2 °F 69% 29.89 in 6.2 mi ENE 11.5 mph - N/A   Unknown
1:00 PM 78 °F 65 °F 55% 29.87 in - ENE 12.7 mph - -  
1:00 PM 78.8 °F 64.4 °F 61% 29.86 in 6.2 mi NE 12.7 mph - N/A   Unknown
1:30 PM 77.0 °F 64.4 °F 65% 29.86 in 6.2 mi ENE 13.8 mph - N/A   Unknown
2:00 PM 78.8 °F 64.4 °F 61% 29.86 in 6.2 mi NE 12.7 mph - N/A   Unknown
2:30 PM 77.0 °F 64.4 °F 65% 29.83 in 6.2 mi ENE 13.8 mph - N/A   Unknown
3:00 PM 78.8 °F 64.4 °F 61% 29.83 in 6.2 mi NE 12.7 mph - N/A   Unknown
3:30 PM 77.0 °F 64.4 °F 65% 29.83 in 6.2 mi NNE 13.8 mph - N/A   Unknown
4:00 PM 78 °F 65 °F 56% 29.84 in - NE 13.8 mph - -  
4:00 PM 78.8 °F 66.2 °F 65% 29.83 in 6.2 mi NE 13.8 mph - N/A   Unknown
4:30 PM 75.2 °F 62.6 °F 65% 29.83 in 6.2 mi NE 11.5 mph - N/A   Unknown
5:00 PM 75.2 °F 64.4 °F 69% 29.83 in 6.2 mi NE 12.7 mph - N/A   Unknown
5:30 PM 75.2 °F 64.4 °F 69% 29.80 in 6.2 mi NE 12.7 mph - N/A   Scattered Clouds
6:00 PM 73.4 °F 62.6 °F 69% 29.83 in 6.2 mi NNE 8.1 mph - N/A   Scattered Clouds
6:30 PM 73.4 °F 64.4 °F 73% 29.83 in 6.2 mi NNE 9.2 mph - N/A   Scattered Clouds
7:00 PM 74 °F 64 °F 63% 29.85 in - NE 9.2 mph - -   Overcast
7:00 PM 73.4 °F 64.4 °F 73% 29.83 in 6.2 mi NE 9.2 mph - N/A   Overcast
7:30 PM 73.4 °F 64.4 °F 73% 29.86 in 6.2 mi NE 9.2 mph - N/A   Overcast
8:00 PM 73.4 °F 62.6 °F 69% 29.86 in 6.2 mi NNE 9.2 mph - N/A   Overcast
8:30 PM 73.4 °F 64.4 °F 73% 29.86 in 6.2 mi NNE 10.4 mph - N/A   Overcast
9:00 PM 73.4 °F 64.4 °F 73% 29.86 in 6.2 mi NNE 10.4 mph - N/A   Mostly Cloudy
9:30 PM 73.4 °F 64.4 °F 73% 29.86 in 6.2 mi NNE 9.2 mph - N/A   Unknown
10:00 PM 73 °F 64 °F 66% 29.88 in - NNE 10.4 mph - -  
10:00 PM 73.4 °F 64.4 °F 73% 29.89 in 6.2 mi NNE 10.4 mph - N/A   Scattered Clouds
10:30 PM 73.4 °F 64.4 °F 73% 29.86 in 6.2 mi North 10.4 mph - N/A   Scattered Clouds
11:00 PM 73.4 °F 64.4 °F 73% 29.86 in 6.2 mi North 10.4 mph - N/A   Scattered Clouds
11:30 PM 73.4 °F 64.4 °F 73% 29.86 in 6.2 mi North 9.2 mph - N/A   Scattered Clouds